Location: Coleto Creek Park and Reservoir
(28.7196°N, 97.1740°W)
Time: 18:41:53
(UTC-06:00)

Hubble Space Telescope - Visible Passes

Search period start: 21 January 2018 00:00
Search period end: 31 January 2018 00:00
Orbit: 537 x 541 km, 28.5° (Epoch: 20 January)

Date Brightness Start Highest point End Pass type
(mag) Time Alt. Az. Time Alt. Az. Time Alt. Az.
21 Jan 1.9 19:50:28 10° SW 19:53:29 35° S 19:53:29 35° S visible
22 Jan 1.3 19:40:04 10° WSW 19:43:55 47° S 19:43:55 47° S visible
23 Jan 1.0 19:29:43 10° WSW 19:33:45 56° SSE 19:34:20 50° SE visible
24 Jan 0.9 19:19:25 10° WSW 19:23:30 65° SSE 19:24:44 41° ESE visible
25 Jan 0.8 19:09:08 10° WSW 19:13:15 73° S 19:15:07 31° E visible
25 Jan 4.1 20:50:20 10° W 20:50:29 11° W 20:50:29 11° W visible
26 Jan 0.7 18:58:53 10° W 19:03:00 80° S 19:05:31 23° E visible
26 Jan 3.7 20:40:06 10° W 20:40:52 15° W 20:40:52 15° W visible
27 Jan 0.7 18:48:38 10° W 18:52:46 85° S 18:55:55 17° E visible
27 Jan 3.2 20:29:52 10° W 20:31:17 21° W 20:31:17 21° W visible
28 Jan 0.8 18:38:23 10° W 18:42:32 88° S 18:46:21 12° E visible
28 Jan 2.7 20:19:37 10° W 20:21:43 28° W 20:21:43 28° W visible
29 Jan 0.8 18:28:09 10° W 18:32:17 88° S 18:36:26 10° E visible
29 Jan 2.1 20:09:25 10° W 20:12:12 38° WSW 20:12:12 38° WSW visible
30 Jan 1.6 19:59:12 10° W 20:02:45 46° SW 20:02:45 46° SW visible
